GFSNE_sfc_30mbdewp_000.txt.gz
Dewpoint
37 37 35 35 36 36 36 36 33 31 29 28 34 37 40 42 43 40 36 33 33 36 36 34 37 35 33 34 36 40 42 43 42 42 43 44 45 46
36 36 36 35 34 32 32 34 34 31 29 30 27 27 26 28 36 38 34 36 35 34 31 28 30 30 32 32 34 36 38 39 41 42 40 38 39 40
32 32 32 32 32 31 29 27 25 25 24 22 24 24 25 28 27 26 28 34 35 33 31 29 29 30 30 29 28 28 30 34 38 41 43 39 37 37
30 29 29 28 27 25 24 24 23 23 22 20 21 21 20 22 23 25 27 25 29 33 32 31 29 29 30 29 27 26 27 29 33 35 40 43 42 40
21 22 23 23 23 22 22 22 22 22 22 21 20 20 20 21 20 22 22 25 27 24 31 32 32 31 31 31 29 28 28 29 32 34 35 37 38 41
21 20 21 21 22 22 23 23 21 21 20 20 19 18 19 20 20 18 19 21 21 22 21 26 31 31 30 30 30 30 30 31 32 32 32 33 35 38
19 19 19 21 23 22 20 20 20 19 19 19 19 19 19 19 20 23 23 24 25 27 26 26 26 31 32 33 31 31 32 32 33 34 34 35 35 37
18 18 18 20 20 21 22 22 21 18 18 17 17 17 18 19 21 22 23 23 22 25 24 24 26 26 28 30 30 30 30 35 36 35 34 35 36 36
17 18 19 19 21 21 23 24 23 26 26 23 20 20 19 19 20 21 21 22 23 25 24 23 24 24 26 26 32 29 28 28 28 32 36 35 36 36
18 18 18 19 22 21 20 22 22 22 22 23 24 24 23 22 23 25 26 26 25 26 26 23 25 24 26 27 27 28 29 28 28 28 29 33 36 36
19 21 22 21 20 20 22 23 23 22 22 23 24 26 26 26 26 25 23 23 23 25 25 22 22 23 24 25 28 29 28 27 31 30 31 34 35 35
21 21 19 22 25 25 25 25 24 24 22 24 23 22 21 26 29 30 27 23 20 20 21 21 22 23 24 24 26 28 29 30 30 30 32 33 35 34
20 20 21 27 25 22 21 22 22 22 22 21 21 20 21 22 22 23 26 28 24 21 22 23 27 28 27 26 24 27 30 30 31 31 33 33 33 33
21 23 23 23 22 21 22 23 23 22 21 21 22 23 24 24 25 24 24 28 31 28 26 27 29 26 25 24 24 25 27 29 31 30 32 33 33 33
22 22 23 23 22 23 25 22 23 22 23 23 22 23 25 26 26 26 28 30 31 30 31 30 29 28 28 25 26 26 25 28 30 33 33 31 32 33
20 21 23 21 22 23 23 23 24 24 22 23 23 24 26 27 27 28 29 28 28 27 29 30 29 28 27 27 27 25 25 25 27 32 33 32 33 35
20 21 19 18 18 20 19 21 22 21 22 22 23 24 25 25 25 26 28 27 27 27 27 28 29 30 29 27 26 25 25 25 28 30 32 31 32 32
19 17 16 17 17 18 19 19 19 21 20 22 22 23 23 24 24 26 29 29 26 25 25 27 30 29 28 28 29 26 25 26 27 28 31 30 30 32
17 17 17 14 14 14 15 16 18 20 20 21 22 22 23 23 25 25 26 25 24 27 28 30 29 28 25 22 25 29 27 26 29 28 29 29 28 31
15 14 13 14 14 14 15 16 18 19 18 19 21 22 22 23 24 23 23 24 25 26 27 24 23 23 24 23 25 24 27 26 27 26 27 30 28 29
11 11 12 14 14 14 15 16 17 18 18 18 19 21 23 23 22 22 23 22 23 24 23 21 22 23 24 27 26 22 23 24 25 25 25 25 27 27
13 12 13 14 14 14 14 15 15 15 16 16 16 18 21 23 22 22 22 22 22 22 22 22 24 21 22 22 23 23 23 24 24 24 24 23 22 21
12 13 14 13 13 13 13 13 13 14 14 15 15 16 19 19 21 22 21 22 20 17 17 22 21 23 20 19 21 23 19 22 24 22 21 22 23 24

GFSNE_sfc_30mbdewp_003.txt.gz
Dewpoint
36 37 37 36 35 36 36 36 34 30 29 29 30 30 32 35 39 41 44 44 42 38 39 33 39 36 33 33 36 39 43 45 44 43 43 43 45 46
34 34 35 36 37 37 36 35 34 31 28 28 28 29 29 28 31 35 34 40 41 39 36 29 30 32 32 31 31 34 37 39 41 42 43 40 38 38
33 33 32 32 31 35 35 32 32 32 28 24 24 25 23 23 23 26 32 32 37 39 34 27 27 29 30 29 28 27 27 30 34 37 39 43 40 37
23 22 23 23 24 26 28 27 25 25 24 22 22 22 22 23 23 23 26 24 35 37 36 29 30 31 31 30 28 27 26 26 27 29 33 35 39 42
21 21 20 20 19 21 24 24 24 22 21 19 20 21 20 21 20 21 22 22 23 31 33 34 31 31 31 30 30 28 27 27 28 29 32 32 33 35
21 21 20 19 20 22 23 23 23 20 19 19 19 19 19 20 22 23 24 26 24 26 25 32 33 33 33 31 29 30 29 30 29 30 30 31 31 31
19 19 18 20 21 24 23 23 21 20 19 18 18 17 17 18 19 22 22 22 23 27 25 25 27 29 31 32 34 34 35 35 34 34 33 33 33 34
17 17 19 20 22 23 27 27 25 23 19 17 16 16 17 18 20 20 20 20 20 25 25 23 25 24 28 30 32 32 29 30 31 34 36 36 35 35
18 18 18 17 21 23 23 23 21 22 23 25 22 21 20 21 20 19 19 20 21 24 24 22 25 23 25 26 28 26 25 26 27 29 29 33 36 35
20 20 20 22 25 22 21 21 22 22 22 22 22 23 24 24 23 22 25 27 26 26 26 22 23 22 24 25 27 30 29 28 27 25 26 29 30 34
21 21 20 19 20 23 24 24 24 24 23 22 23 27 29 30 28 28 25 23 21 21 24 23 23 22 23 23 24 27 27 29 30 29 28 28 28 31
21 20 20 21 27 26 23 22 20 19 20 21 21 21 21 21 21 25 26 24 23 20 20 19 19 22 21 24 24 25 26 27 28 30 32 32 31 32
19 19 21 21 22 23 22 23 22 21 22 21 20 20 20 20 22 23 23 24 24 24 23 22 22 25 25 25 24 23 25 27 28 29 31 33 33 34
19 20 22 24 21 21 23 25 22 22 22 20 20 20 22 23 24 26 27 26 27 26 26 25 26 24 24 23 23 24 24 26 28 28 29 30 32 34
20 21 22 20 21 22 23 23 23 23 22 21 21 22 24 24 24 24 25 27 29 30 31 30 29 29 27 25 23 24 24 26 28 28 31 32 32 31
20 21 21 20 20 22 21 22 22 21 21 20 21 23 25 25 25 27 26 27 27 26 27 30 30 30 28 27 26 25 26 24 26 28 30 31 32 32
20 20 18 17 17 18 18 19 20 21 20 20 21 22 23 24 24 26 26 26 26 26 26 27 29 29 29 27 26 26 26 25 25 25 29 27 29 30
17 17 16 15 15 15 16 17 17 19 19 20 21 22 22 22 23 25 25 25 25 25 26 27 28 28 28 28 29 27 26 25 25 26 28 27 27 28
15 14 14 14 14 14 15 16 16 19 19 18 19 20 21 22 23 23 23 23 23 25 27 26 27 26 24 22 25 29 27 25 26 27 28 28 27 28
13 13 13 14 14 14 14 15 15 17 17 17 17 18 20 21 22 22 22 22 22 24 23 22 21 22 22 22 24 23 26 26 26 25 26 27 28 29
13 13 14 14 14 14 13 13 14 15 14 15 15 16 17 20 20 21 21 22 21 22 21 21 23 23 23 25 23 21 22 24 25 24 24 23 23 26
11 12 14 14 12 12 13 12 13 12 12 12 13 14 16 19 19 21 20 21 18 17 17 18 23 24 21 20 20 22 21 22 23 24 24 23 22 21
11 11 12 13 12 11 13 12 12 10 10 11 11 12 14 16 17 19 19 17 19 17 17 19 22 22 24 20 21 23 20 20 23 22 21 22 24 24

GFSNE_sfc_30mbdewp_006.txt.gz
Dewpoint
32 33 33 34 35 36 36 34 30 27 29 30 29 30 30 32 32 32 38 41 43 42 42 43 43 42 39 33 35 39 42 44 45 45 43 44 44 45
33 33 32 32 32 32 33 35 33 30 27 30 29 27 27 26 25 28 35 35 40 43 42 42 38 38 34 34 31 32 35 39 41 42 44 42 38 37
26 24 22 23 23 24 25 26 30 32 30 28 28 23 22 22 23 24 29 33 36 38 39 41 39 35 32 30 28 27 27 30 32 34 37 41 43 41
21 21 20 20 20 20 21 21 24 24 26 27 22 21 20 21 22 24 26 26 34 34 38 39 39 37 31 30 28 28 26 25 26 26 29 31 35 39
21 20 19 19 18 18 20 22 23 22 22 20 20 21 20 20 20 25 24 24 25 29 29 36 38 37 34 31 29 28 26 25 25 27 28 29 30 32
20 20 19 18 18 20 22 23 23 23 22 20 20 19 19 18 21 22 21 22 22 26 27 26 29 34 35 36 34 32 30 28 28 29 29 31 31 31
19 18 17 18 17 19 23 28 27 25 22 19 18 18 16 17 16 21 19 20 20 27 25 25 25 25 29 30 33 34 33 33 33 33 32 32 32 32
18 18 19 18 19 21 22 23 22 24 23 24 21 18 17 17 19 19 19 18 16 24 23 22 24 23 25 28 31 31 30 30 31 33 35 35 35 34
20 20 20 18 21 23 24 22 22 22 22 23 22 21 21 20 20 20 19 19 20 23 25 22 24 21 23 24 28 26 25 27 27 27 28 30 33 35
22 21 20 20 20 20 20 24 24 24 23 22 21 22 23 23 23 22 22 23 26 26 25 22 23 23 24 24 25 29 29 26 25 25 26 27 27 29
21 20 19 21 21 23 24 22 21 20 20 21 24 25 27 28 28 27 25 24 21 21 23 22 21 19 20 21 24 26 26 29 29 27 27 28 29 28
20 18 19 19 20 23 24 23 21 19 20 20 21 21 21 21 20 22 24 23 23 21 21 20 19 20 18 21 21 23 25 27 29 31 30 30 31 31
17 18 19 21 21 19 21 23 22 24 23 23 21 20 20 20 21 21 22 22 21 21 23 22 24 22 22 22 23 24 23 23 25 27 30 32 32 33
19 20 22 19 21 22 23 23 22 22 23 21 20 20 20 21 23 24 25 26 25 23 24 25 25 24 22 22 23 24 23 23 24 26 27 29 30 32
20 20 17 18 20 21 20 22 22 21 20 19 20 21 23 24 25 25 25 26 28 29 29 29 29 26 25 24 22 22 23 24 24 26 27 29 29 29
20 20 19 19 18 20 20 20 21 21 20 19 20 21 24 24 25 26 25 26 25 26 28 29 29 29 27 27 27 25 25 24 25 25 29 29 29 31
16 17 16 15 15 15 15 16 18 20 18 19 19 20 22 23 24 26 26 26 24 25 25 27 28 29 29 27 25 25 26 25 25 25 26 26 27 28
14 14 13 13 14 15 14 14 15 17 18 18 18 19 20 21 22 24 24 23 23 24 24 26 27 27 27 28 29 26 26 26 25 25 26 26 26 26
12 13 13 13 13 14 14 14 14 15 17 16 16 17 18 20 21 22 21 21 22 25 24 23 25 26 23 20 24 28 26 26 25 25 25 27 26 26
12 13 13 14 13 13 13 12 13 13 12 13 14 15 16 18 19 20 21 20 21 22 21 22 22 22 21 21 22 23 25 24 25 24 25 26 27 28
11 11 13 13 12 12 12 11 11 10 10 10 11 12 14 16 17 19 19 19 17 18 17 17 20 23 23 24 22 20 21 24 23 22 22 21 22 24
10 11 11 12 11 10 12 11 11 9 8 9 10 11 12 14 15 17 17 18 17 15 16 19 22 23 22 20 19 21 20 21 22 24 24 22 20 19
11 11 10 11 11 10 12 10 10 8 8 8 9 10 11 12 14 15 15 14 14 13 14 15 18 21 22 20 20 22 20 19 22 21 21 21 23 24

GFSNE_sfc_30mbdewp_012.txt.gz
Dewpoint
29 30 31 31 30 26 29 25 25 20 17 20 24 29 30 31 27 28 29 36 40 41 40 40 41 41 45 43 42 40 39 44 48 49 50 49 48 46
31 31 26 25 23 23 22 21 22 20 18 20 20 27 30 29 25 26 27 29 38 38 37 38 39 39 41 44 44 42 37 42 46 46 44 42 41 41
26 22 21 22 20 21 19 20 19 20 18 17 20 23 25 28 24 25 27 24 28 35 37 37 37 37 38 41 43 42 37 40 42 45 45 43 40 40
21 20 20 19 19 18 18 17 18 19 20 20 21 22 24 26 21 21 24 25 22 33 34 35 37 37 37 39 41 41 39 35 33 37 40 43 44 43
21 21 20 20 19 18 17 19 19 21 24 25 23 23 23 23 21 21 23 22 20 21 29 32 33 35 36 37 40 39 37 35 33 30 31 34 36 37
22 21 21 20 19 18 20 19 20 21 21 22 23 23 23 23 20 19 18 21 18 17 24 28 30 30 33 35 37 38 36 33 31 30 30 29 30 33
21 22 21 21 23 21 18 18 19 21 21 22 21 20 23 22 17 19 18 18 19 20 24 23 24 26 28 31 35 37 36 31 30 31 30 29 30 30
23 22 22 20 19 18 19 19 20 20 21 22 20 20 20 22 25 23 19 18 14 22 23 22 24 22 24 26 30 34 34 32 32 32 32 31 31 31
21 19 17 16 19 20 21 20 21 24 26 25 22 21 21 23 20 20 20 19 18 19 21 20 24 22 23 23 24 29 30 32 33 33 33 34 34 34
19 18 18 18 20 19 22 24 21 23 22 21 21 22 24 25 22 21 21 21 21 22 25 22 22 21 22 24 24 26 29 28 27 27 27 27 28 30
18 19 18 19 19 22 22 21 20 19 20 20 20 20 20 21 25 25 23 21 18 18 24 23 21 21 21 21 21 24 27 28 30 29 27 26 26 25
20 19 18 19 19 20 23 20 19 19 20 22 22 22 22 22 21 20 22 21 22 20 21 22 21 20 18 21 23 22 23 25 28 28 30 31 30 29
19 18 19 20 17 17 19 21 21 22 20 20 21 22 22 22 21 20 20 20 20 20 22 23 21 20 20 20 23 24 24 24 25 25 26 30 31 32
17 19 20 16 15 15 16 18 20 20 20 19 19 19 20 21 22 23 22 22 22 20 19 23 20 21 21 19 20 22 23 24 24 24 24 25 28 32
16 16 16 14 15 15 15 16 18 18 18 17 17 18 20 23 24 26 25 25 25 24 24 23 23 23 24 22 21 21 22 24 23 24 24 25 27 28
13 13 14 15 13 15 14 14 15 16 16 16 16 18 21 23 23 25 24 24 23 23 27 28 27 27 24 24 24 21 23 23 24 24 25 27 28 29
12 11 12 11 11 13 12 12 12 12 13 14 15 16 17 20 22 25 25 25 23 23 25 26 28 28 28 26 25 25 24 24 24 25 26 25 26 28
10 11 10 9 9 11 12 11 11 9 9 13 14 14 15 16 19 21 23 22 23 23 23 24 26 25 25 27 29 26 26 24 26 27 26 25 25 26
9 9 9 9 9 10 12 11 10 9 8 10 11 12 13 15 17 18 19 19 20 21 22 23 24 25 23 21 24 28 26 27 27 27 27 25 23 24
10 10 9 10 10 9 11 10 9 7 6 7 8 10 11 13 14 16 17 17 16 17 17 20 21 21 21 21 21 24 26 25 24 23 24 24 26 27
11 10 10 9 10 10 8 9 8 7 5 5 7 8 9 11 13 14 14 13 14 14 14 15 18 19 21 22 20 20 21 23 23 22 22 22 21 21
12 11 11 10 10 9 7 8 7 6 6 6 6 7 8 8 11 11 12 11 11 11 12 15 19 21 22 21 18 18 20 21 23 23 23 21 20 18
14 12 11 9 8 8 8 8 7 6 6 7 6 8 8 8 9 9 10 11 10 10 10 13 14 17 19 20 18 19 19 19 21 21 21 21 23 24